User: anonymous   Login
Location: Les Thiberg�res
(47.8554°N, 1.0978°W)
Time: 10:28:37
(UTC+00:00)
Language:

Cosmos 2221 - Orbit

View from above orbital plane
View from above orbital plane
View from above satellite
View from above satellite

Ground track
Ground track

The orbit data is extracted from the following two-line orbital elements,

1 22236U 92080A   21209.92723687  .00000240  00000-0  23309-4 0  9999
2 22236  82.5067  79.5431 0017934  55.2751 305.0152 14.88078069529714
Epoch (UTC): 28 July 2021 22:15:13
Eccentricity: 0.0017934
inclination: 82.5067°
perigee height: 591 km
apogee height: 616 km
right ascension of ascending node: 79.5431°
argument of perigee: 55.2751°
revolutions per day: 14.88078069
mean anomaly at epoch: 305.0152°
orbit number at epoch: 52971

The dashed part of the orbit path shows where the satellite is in the earth's shadow,  

DLR